DCITY LSZR-EGLC

Flight info

Callsign DCITY
Flight time 1h 18m
Altitude 38000
Route ALAGO Z1 ETAGO DCT LIRSU DCT DENUT L608 SUMUM
Aircraft LJ35/M-SGHRWXY/SB1

Departure

Time 2026-04-25 21:07
Airport Sankt Gallen Altenrhein Airport (LSZR)

Arrival

Time 2026-04-25 22:26
Airport London City Airport (EGLC)
Time Latitude Longitude Altitude Speed Heading
2026-04-25 20:53 47.48707 9.55296 1316 ft 0 kts
2026-04-25 21:03 47.48714 9.55297 1336 ft 4 kts
2026-04-25 21:03 47.48735 9.55324 1336 ft 5 kts 85°
2026-04-25 21:03 47.48702 9.55343 1337 ft 6 kts 187°
2026-04-25 21:04 47.48637 9.55329 1339 ft 13 kts 186°
2026-04-25 21:04 47.48577 9.55380 1341 ft 13 kts 102°
2026-04-25 21:04 47.48563 9.55520 1340 ft 17 kts 98°
2026-04-25 21:04 47.48541 9.55731 1341 ft 23 kts 98°
2026-04-25 21:05 47.48524 9.55891 1342 ft 25 kts 99°
2026-04-25 21:05 47.48497 9.56144 1339 ft 25 kts 99°
2026-04-25 21:05 47.48463 9.56472 1337 ft 24 kts 99°
2026-04-25 21:05 47.48437 9.56719 1338 ft 23 kts 98°
2026-04-25 21:06 47.48415 9.56932 1339 ft 15 kts 100°
2026-04-25 21:06 47.48414 9.56992 1340 ft 8 kts 78°
2026-04-25 21:06 47.48401 9.57047 1341 ft 8 kts 241°
2026-04-25 21:06 47.48404 9.57014 1340 ft 0 kts 279°
2026-04-25 21:07 47.48428 9.56791 1339 ft 77 kts 279°
2026-04-25 21:07 47.48580 9.55407 1585 ft 179 kts 280°
2026-04-25 21:07 47.48867 9.53365 2700 ft 207 kts 288°
2026-04-25 21:07 47.49647 9.51669 3877 ft 202 kts 324°
2026-04-25 21:08 47.50952 9.51003 4803 ft 212 kts 357°
2026-04-25 21:08 47.52528 9.51277 5219 ft 247 kts 12°
2026-04-25 21:08 47.54282 9.51856 5857 ft 262 kts 11°
2026-04-25 21:08 47.56122 9.52361 7075 ft 267 kts
2026-04-25 21:09 47.59820 9.53263 8753 ft 275 kts
2026-04-25 21:09 47.61757 9.53463 10225 ft 275 kts 359°
2026-04-25 21:09 47.63680 9.53544 12096 ft 277 kts
2026-04-25 21:10 47.65606 9.53673 14027 ft 279 kts
2026-04-25 21:10 47.67574 9.53677 15581 ft 286 kts 353°
2026-04-25 21:10 47.69513 9.52927 17132 ft 291 kts 338°
2026-04-25 21:10 47.71399 9.51717 18650 ft 298 kts 337°
2026-04-25 21:11 47.73361 9.50460 19737 ft 310 kts 337°
2026-04-25 21:11 47.75347 9.49213 21203 ft 312 kts 337°
2026-04-25 21:11 47.77360 9.47945 22525 ft 317 kts 337°
2026-04-25 21:11 47.79427 9.46745 23811 ft 321 kts 344°
2026-04-25 21:12 47.81659 9.46265 24824 ft 329 kts 356°
2026-04-25 21:12 47.83976 9.46264 25775 ft 336 kts 358°
2026-04-25 21:12 47.86299 9.46270 26691 ft 341 kts 358°
2026-04-25 21:12 47.87912 9.46264 27304 ft 346 kts 357°
2026-04-25 21:13 47.91168 9.46250 28481 ft 354 kts 357°
2026-04-25 21:13 47.93648 9.46245 29320 ft 359 kts 357°
2026-04-25 21:13 47.96171 9.46241 30121 ft 365 kts 357°
2026-04-25 21:13 47.98727 9.46236 30793 ft 370 kts 357°
2026-04-25 21:14 48.01320 9.46229 31429 ft 375 kts 357°
2026-04-25 21:14 48.03946 9.46223 32033 ft 379 kts 357°
2026-04-25 21:14 48.06598 9.46217 32617 ft 384 kts 357°
2026-04-25 21:14 48.09283 9.46211 33176 ft 388 kts 356°
2026-04-25 21:15 48.11986 9.46206 33883 ft 387 kts 356°
2026-04-25 21:15 48.14669 9.46201 34538 ft 386 kts 356°
2026-04-25 21:15 48.17360 9.46194 35132 ft 385 kts 356°
2026-04-25 21:15 48.20037 9.46193 35720 ft 385 kts 357°
2026-04-25 21:16 48.22680 9.46200 36286 ft 384 kts 357°
2026-04-25 21:16 48.25350 9.46205 36843 ft 384 kts 356°
2026-04-25 21:16 48.28020 9.46204 37408 ft 384 kts 356°
2026-04-25 21:16 48.30722 9.46204 37953 ft 384 kts 356°
2026-04-25 21:17 48.33439 9.46203 37982 ft 396 kts 357°
2026-04-25 21:17 48.36243 9.46206 37986 ft 408 kts 357°
2026-04-25 21:17 48.42052 9.46212 37997 ft 426 kts 357°
2026-04-25 21:18 48.48067 9.46218 37998 ft 435 kts 357°
2026-04-25 21:18 48.54079 9.46227 37988 ft 426 kts 357°
2026-04-25 21:19 48.60003 9.46133 37985 ft 427 kts 356°
2026-04-25 21:19 48.65958 9.46010 37982 ft 427 kts 352°
2026-04-25 21:20 48.70721 9.44300 37985 ft 422 kts 336°
2026-04-25 21:20 48.74149 9.41482 37990 ft 418 kts 323°
2026-04-25 21:20 48.76365 9.38647 37983 ft 416 kts 314°
2026-04-25 21:21 48.79996 9.31839 37988 ft 414 kts 308°
2026-04-25 21:21 48.83522 9.24938 37988 ft 413 kts 307°
2026-04-25 21:22 48.87033 9.18026 37987 ft 413 kts 307°
2026-04-25 21:22 48.90538 9.11118 37986 ft 413 kts 307°
2026-04-25 21:23 48.94038 9.04199 37986 ft 413 kts 307°
2026-04-25 21:23 48.97533 8.97271 37990 ft 413 kts 307°
2026-04-25 21:24 49.01031 8.90321 37987 ft 413 kts 307°
2026-04-25 21:24 49.04521 8.83366 37991 ft 413 kts 307°
2026-04-25 21:25 49.08009 8.76401 37988 ft 413 kts 307°
2026-04-25 21:25 49.11495 8.69419 37993 ft 413 kts 307°
2026-04-25 21:26 49.14978 8.62427 37996 ft 414 kts 307°
2026-04-25 21:26 49.18456 8.55424 38002 ft 414 kts 306°
2026-04-25 21:27 49.21935 8.48403 37998 ft 414 kts 306°
2026-04-25 21:27 49.25413 8.41365 38002 ft 414 kts 306°
2026-04-25 21:28 49.28883 8.34323 38003 ft 414 kts 306°
2026-04-25 21:28 49.32356 8.27259 38006 ft 415 kts 306°
2026-04-25 21:29 49.35797 8.20238 38002 ft 415 kts 306°
2026-04-25 21:29 49.39259 8.13158 38005 ft 415 kts 306°
2026-04-25 21:30 49.42722 8.06056 38003 ft 415 kts 306°
2026-04-25 21:30 49.45621 8.00097 38007 ft 416 kts 306°
2026-04-25 21:31 49.49646 7.91800 38011 ft 417 kts 306°
2026-04-25 21:31 49.53111 7.84636 38017 ft 417 kts 306°
2026-04-25 21:32 49.56577 7.77452 38015 ft 418 kts 305°
2026-04-25 21:32 49.60043 7.70249 38015 ft 418 kts 305°
2026-04-25 21:33 49.63505 7.63034 38019 ft 418 kts 305°
2026-04-25 21:33 49.66961 7.55813 38018 ft 419 kts 305°
2026-04-25 21:34 49.70416 7.48572 38022 ft 419 kts 305°
2026-04-25 21:34 49.73868 7.41319 38031 ft 419 kts 305°
2026-04-25 21:35 49.77322 7.34041 38037 ft 419 kts 305°
2026-04-25 21:35 49.80750 7.26799 38036 ft 420 kts 305°
2026-04-25 21:36 49.84194 7.19502 38039 ft 420 kts 305°
2026-04-25 21:36 49.87643 7.12176 38045 ft 420 kts 305°
2026-04-25 21:37 49.89951 7.07260 38038 ft 421 kts 304°
2026-04-25 21:37 49.94534 6.97475 38034 ft 421 kts 304°
2026-04-25 21:38 49.97971 6.90112 38035 ft 421 kts 304°
2026-04-25 21:38 50.01408 6.82728 38039 ft 421 kts 304°
2026-04-25 21:39 50.04844 6.75329 38041 ft 421 kts 304°
2026-04-25 21:39 50.08270 6.67928 38031 ft 422 kts 304°
2026-04-25 21:40 50.11693 6.60511 38029 ft 422 kts 304°
2026-04-25 21:40 50.15123 6.53054 38030 ft 424 kts 304°
2026-04-25 21:41 50.18561 6.45557 38029 ft 425 kts 303°
2026-04-25 21:41 50.21160 6.39042 38037 ft 425 kts 300°
2026-04-25 21:42 50.24257 6.31171 38044 ft 426 kts 300°
2026-04-25 21:42 50.27366 6.23282 38045 ft 426 kts 300°
2026-04-25 21:43 50.30462 6.15376 38055 ft 426 kts 300°
2026-04-25 21:43 50.33557 6.07463 38056 ft 426 kts 300°
2026-04-25 21:44 50.36651 5.99522 38061 ft 427 kts 300°
2026-04-25 21:45 50.41283 5.87589 38067 ft 427 kts 300°
2026-04-25 21:45 50.44364 5.79623 38068 ft 427 kts 300°
2026-04-25 21:46 50.47441 5.71644 38070 ft 428 kts 300°
2026-04-25 21:46 50.50520 5.63634 38071 ft 428 kts 300°
2026-04-25 21:47 50.53591 5.55619 38065 ft 429 kts 300°
2026-04-25 21:47 50.56659 5.47585 38067 ft 429 kts 300°
2026-04-25 21:48 50.59726 5.39532 38065 ft 429 kts 300°
2026-04-25 21:48 50.62787 5.31468 38066 ft 429 kts 300°
2026-04-25 21:49 50.65847 5.23384 38069 ft 429 kts 300°
2026-04-25 21:49 50.68899 5.15293 38070 ft 430 kts 300°
2026-04-25 21:50 50.71949 5.07184 38074 ft 430 kts 300°
2026-04-25 21:50 50.75001 4.99043 38081 ft 431 kts 300°
2026-04-25 21:51 50.78043 4.90902 38187 ft 429 kts 300°
2026-04-25 21:51 50.81074 4.82765 38230 ft 430 kts 300°
2026-04-25 21:52 50.84112 4.74584 38234 ft 432 kts 300°
2026-04-25 21:52 50.87149 4.66381 38233 ft 432 kts 300°
2026-04-25 21:53 50.90182 4.58157 38237 ft 432 kts 300°
2026-04-25 21:53 50.93212 4.49922 38235 ft 433 kts 300°
2026-04-25 21:54 50.96236 4.41675 38241 ft 433 kts 300°
2026-04-25 21:54 50.99257 4.33405 38242 ft 433 kts 300°
2026-04-25 21:55 51.02279 4.25111 38245 ft 434 kts 300°
2026-04-25 21:55 51.05294 4.16805 38248 ft 434 kts 300°
2026-04-25 21:56 51.08302 4.08493 38246 ft 434 kts 300°
2026-04-25 21:56 51.11308 4.00160 38252 ft 434 kts 299°
2026-04-25 21:57 51.14308 3.91814 38249 ft 434 kts 299°
2026-04-25 21:57 51.17308 3.83444 38252 ft 435 kts 299°
2026-04-25 21:58 51.20300 3.75069 38256 ft 435 kts 299°
2026-04-25 21:58 51.23283 3.66687 38253 ft 435 kts 299°
2026-04-25 21:59 51.26371 3.58389 38252 ft 435 kts 300°
2026-04-25 21:59 51.29442 3.50032 38252 ft 435 kts 300°
2026-04-25 22:00 51.34057 3.37565 38249 ft 435 kts 300°
2026-04-25 22:00 51.36413 3.28740 38283 ft 417 kts 291°
2026-04-25 22:01 51.37413 3.24528 37948 ft 394 kts 291°
2026-04-25 22:01 51.38418 3.20327 36017 ft 415 kts 291°
2026-04-25 22:01 51.39460 3.15929 34403 ft 431 kts 291°
2026-04-25 22:01 51.40157 3.12957 33700 ft 431 kts 291°
2026-04-25 22:02 51.41584 3.06879 33064 ft 435 kts 291°
2026-04-25 22:02 51.42651 3.02353 32682 ft 435 kts 291°
2026-04-25 22:02 51.43722 2.97807 32155 ft 436 kts 290°
2026-04-25 22:02 51.44790 2.93243 31604 ft 438 kts 290°
2026-04-25 22:03 51.45861 2.88655 31154 ft 440 kts 290°
2026-04-25 22:03 51.46933 2.84059 30769 ft 441 kts 290°
2026-04-25 22:03 51.48001 2.79476 30384 ft 432 kts 289°
2026-04-25 22:03 51.49041 2.75006 29809 ft 428 kts 289°
2026-04-25 22:04 51.50080 2.70497 29494 ft 433 kts 290°
2026-04-25 22:04 51.51145 2.65874 28716 ft 450 kts 290°
2026-04-25 22:04 51.52243 2.61145 28233 ft 451 kts 290°
2026-04-25 22:04 51.53340 2.56399 27513 ft 454 kts 290°
2026-04-25 22:05 51.54432 2.51633 26777 ft 455 kts 290°
2026-04-25 22:05 51.55526 2.46846 26004 ft 457 kts 290°
2026-04-25 22:05 51.56623 2.42032 25183 ft 459 kts 289°
2026-04-25 22:05 51.57414 2.37062 24308 ft 462 kts 280°
2026-04-25 22:06 51.58037 2.31995 23541 ft 461 kts 284°
2026-04-25 22:06 51.58898 2.26992 22980 ft 455 kts 287°
2026-04-25 22:06 51.59828 2.22149 22467 ft 452 kts 288°
2026-04-25 22:06 51.60594 2.17278 21976 ft 450 kts 278°
2026-04-25 22:07 51.60530 2.12250 21559 ft 449 kts 263°
2026-04-25 22:07 51.60144 2.08991 21301 ft 448 kts 258°
2026-04-25 22:07 51.59073 2.02550 20590 ft 445 kts 256°
2026-04-25 22:07 51.58271 1.97761 20104 ft 441 kts 258°
2026-04-25 22:08 51.57718 1.92942 19543 ft 437 kts 263°
2026-04-25 22:08 51.57371 1.88085 19025 ft 435 kts 265°
2026-04-25 22:08 51.57007 1.83276 18534 ft 433 kts 263°
2026-04-25 22:08 51.56482 1.78528 18025 ft 430 kts 260°
2026-04-25 22:09 51.55937 1.73824 17446 ft 425 kts 261°
2026-04-25 22:09 51.55485 1.69136 16778 ft 423 kts 263°
2026-04-25 22:09 51.55058 1.64482 16206 ft 420 kts 262°
2026-04-25 22:09 51.54584 1.59871 15665 ft 417 kts 261°
2026-04-25 22:10 51.54097 1.55303 15062 ft 413 kts 262°
2026-04-25 22:10 51.53637 1.50784 14438 ft 411 kts 262°
2026-04-25 22:10 51.53184 1.46261 13841 ft 408 kts 262°
2026-04-25 22:10 51.52722 1.41792 13257 ft 404 kts 262°
2026-04-25 22:11 51.52259 1.37357 12713 ft 401 kts 262°
2026-04-25 22:11 51.51802 1.32956 12194 ft 398 kts 262°
2026-04-25 22:11 51.51348 1.28581 11692 ft 396 kts 261°
2026-04-25 22:11 51.50893 1.24238 11221 ft 393 kts 261°
2026-04-25 22:12 51.50440 1.19927 10763 ft 391 kts 261°
2026-04-25 22:12 51.49983 1.15591 10330 ft 388 kts 261°
2026-04-25 22:12 51.49532 1.11329 9875 ft 386 kts 261°
2026-04-25 22:12 51.49386 1.09951 9728 ft 385 kts 261°
2026-04-25 22:13 51.48868 1.02840 8998 ft 382 kts 264°
2026-04-25 22:13 51.48570 0.98607 8608 ft 380 kts 264°
2026-04-25 22:13 51.48270 0.94402 8229 ft 379 kts 264°
2026-04-25 22:13 51.47971 0.90204 7854 ft 379 kts 264°
2026-04-25 22:14 51.47686 0.86254 7475 ft 322 kts 264°
2026-04-25 22:14 51.47428 0.82695 7094 ft 322 kts 264°
2026-04-25 22:14 51.47170 0.79114 6726 ft 324 kts 264°
2026-04-25 22:14 51.47000 0.76734 6470 ft 325 kts 264°
2026-04-25 22:15 51.46738 0.73090 6077 ft 325 kts 264°
2026-04-25 22:15 51.46483 0.69517 5700 ft 326 kts 264°
2026-04-25 22:15 51.46230 0.65933 5321 ft 317 kts 264°
2026-04-25 22:16 51.45995 0.59120 4534 ft 298 kts 279°
2026-04-25 22:16 51.46511 0.55929 4136 ft 293 kts 291°
2026-04-25 22:16 51.47367 0.52970 3751 ft 293 kts 298°
2026-04-25 22:16 51.48047 0.49882 3364 ft 297 kts 281°
2026-04-25 22:17 51.48146 0.46562 3031 ft 299 kts 265°
2026-04-25 22:17 51.47698 0.43364 3018 ft 292 kts 250°
2026-04-25 22:17 51.46743 0.40349 3015 ft 298 kts 239°
2026-04-25 22:17 51.45725 0.37571 3011 ft 296 kts 240°
2026-04-25 22:18 51.44698 0.34735 2999 ft 294 kts 240°
2026-04-25 22:18 51.43726 0.31871 2998 ft 290 kts 247°
2026-04-25 22:18 51.43211 0.28761 2901 ft 291 kts 262°
2026-04-25 22:18 51.43193 0.25489 2658 ft 297 kts 274°
2026-04-25 22:19 51.43324 0.22158 2450 ft 300 kts 273°
2026-04-25 22:19 51.43421 0.18817 2208 ft 299 kts 272°
2026-04-25 22:19 51.43502 0.16120 2051 ft 299 kts 273°
2026-04-25 22:19 51.43588 0.13496 2001 ft 297 kts 273°
2026-04-25 22:20 51.43698 0.10216 1994 ft 292 kts 273°
2026-04-25 22:20 51.43807 0.07015 1996 ft 284 kts 273°
2026-04-25 22:20 51.43903 0.03917 1992 ft 271 kts 273°
2026-04-25 22:20 51.43997 0.00969 1993 ft 256 kts 272°
2026-04-25 22:21 51.44080 -0.01728 1986 ft 229 kts 272°
2026-04-25 22:21 51.44155 -0.04169 1988 ft 211 kts 273°
2026-04-25 22:21 51.44240 -0.06419 1978 ft 192 kts 276°
2026-04-25 22:21 51.44382 -0.08459 1982 ft 180 kts 274°
2026-04-25 22:22 51.44466 -0.10439 1982 ft 179 kts 274°
2026-04-25 22:22 51.44671 -0.12419 1985 ft 183 kts 295°
2026-04-25 22:22 51.45557 -0.13846 1990 ft 185 kts 337°
2026-04-25 22:22 51.46818 -0.14163 1998 ft 185 kts
2026-04-25 22:23 51.48109 -0.14062 1991 ft 186 kts 17°
2026-04-25 22:23 51.49266 -0.13157 2001 ft 186 kts 32°
2026-04-25 22:23 51.50305 -0.11935 1994 ft 185 kts 50°
2026-04-25 22:23 51.51003 -0.10208 1990 ft 185 kts 70°
2026-04-25 22:24 51.51269 -0.08191 1995 ft 186 kts 85°
2026-04-25 22:24 51.51154 -0.06163 1995 ft 174 kts 105°
2026-04-25 22:24 51.50897 -0.04411 1986 ft 153 kts 95°
2026-04-25 22:24 51.50804 -0.02672 1638 ft 161 kts 95°
2026-04-25 22:25 51.50727 -0.00885 1230 ft 151 kts 95°
2026-04-25 22:25 51.50673 0.00654 858 ft 128 kts 94°
2026-04-25 22:25 51.50631 0.02094 576 ft 128 kts 93°
2026-04-25 22:25 51.50586 0.03523 272 ft 130 kts 93°
2026-04-25 22:26 51.50540 0.04963 24 ft 123 kts 92°
2026-04-25 22:26 51.50510 0.05927 20 ft 37 kts 92°
2026-04-25 22:26 51.50501 0.06210 20 ft 19 kts 92°
2026-04-25 22:26 51.50467 0.06327 20 ft 8 kts 153°
2026-04-25 22:27 51.50419 0.06323 20 ft 10 kts 243°
2026-04-25 22:27 51.50417 0.06199 20 ft 13 kts 273°
2026-04-25 22:27 51.50423 0.06023 20 ft 18 kts 273°
2026-04-25 22:27 51.50429 0.05844 20 ft 19 kts 272°
2026-04-25 22:28 51.50436 0.05614 20 ft 22 kts 273°
2026-04-25 22:28 51.50442 0.05414 20 ft 15 kts 272°
2026-04-25 22:28 51.50447 0.05253 20 ft 14 kts 273°
2026-04-25 22:28 51.50452 0.05105 20 ft 15 kts 272°
2026-04-25 22:29 51.50463 0.04948 20 ft 11 kts 272°
2026-04-25 22:29 51.50467 0.04819 20 ft 12 kts 272°
2026-04-25 22:29 51.50471 0.04684 20 ft 11 kts 273°
2026-04-25 22:30 51.50483 0.04469 20 ft 9 kts 286°
2026-04-25 22:30 51.50497 0.04366 20 ft 10 kts 281°
2026-04-25 22:30 51.50501 0.04295 20 ft 3 kts 274°
2026-04-25 22:30 51.50502 0.04274 20 ft 5 kts 274°
2026-04-25 22:31 51.50517 0.04165 20 ft 8 kts 273°
2026-04-25 22:31 51.50527 0.04080 20 ft 6 kts 300°
2026-04-25 22:31 51.50540 0.04042 20 ft 1 kts 257°
2026-04-25 22:31 51.50534 0.04035 20 ft 0 kts 176°
2026-04-25 22:32 51.50533 0.04035 20 ft 0 kts 176°